Beaver Falls, PA

9:34 PM EST on November 16, 2019 (GMT -0500)
Beaver County

Weather History for KBVI - September, 2019

Change the Weather History Date:

Sunday, September 29, 2019

  Actual Average Record
Temperature  
Mean Temperature 68 °F -  
Max Temperature 73 °F 66 °F 80 °F (1999)
Min Temperature 63 °F 48 °F 33 °F (2000)
Cooling Degree Days 3    
Growing Degree Days 18 (Base 50)    
Moisture  
Dew Point 61 °F    
Average Humidity 79    
Maximum Humidity 94    
Minimum Humidity 63    
Precipitation  
Precipitation 0.00 in - - ()
Sea Level Pressure  
Sea Level Pressure 30.26 in    
Wind  
Wind Speed 3 mph (NE)    
Max Wind Speed 6 mph    
Max Gust Speed -    
Visibility 10 miles    
Events Rain    
Averages and records for this station are not official NWS values.
T = Trace of Precipitation, MM = Missing Value Source: NWS Daily Summary

Daily Weather History Graph

Daily Weather History Graph

Search for Another Location

Airport or City:

Astronomy

Sep. 29, 2019 Rise Set
Actual Time 7:15 AM EDT 7:07 PM EDT
Civil Twilight 6:48 AM EDT 7:34 PM EDT
Nautical Twilight 6:16 AM EDT 8:06 PM EDT
Astronomical Twilight 5:44 AM EDT 8:38 PM EDT
Moon 8:04 AM EDT (9/29) 8:06 PM EDT (9/29)
Length of Visible Light 12h 46m
Length of Day
11h 51m
New Moon, 1% of the Moon is Illuminated
Sep 29
New Moon
Oct 5
First Quarter
Oct 13
Full
Oct 21
Last Quarter
Oct 27
New

Hourly Weather History & Observations

Time (EDT) Temp. Dew Point Humidity Pressure Visibility Wind Dir Wind Speed Gust Speed Precip Events Conditions
12:15 AM 65.8 °F 62.4 °F 89% 30.23 in 10.0 mi North 3.5 mph - N/A   Mostly Cloudy
12:16 AM 65.8 °F 62.4 °F 89% 30.23 in 10.0 mi North 3.5 mph - N/A   Mostly Cloudy
12:35 AM 65.3 °F 62.6 °F 91% 30.23 in 10.0 mi North 3.5 mph - N/A   Scattered Clouds
12:55 AM 65.5 °F 63.0 °F 92% 30.23 in 10.0 mi North 3.5 mph - N/A   Mostly Cloudy
1:15 AM 65.3 °F 62.6 °F 91% 30.23 in 10.0 mi Calm Calm - N/A   Overcast
1:16 AM 65.3 °F 62.6 °F 91% 30.23 in 10.0 mi Calm Calm - N/A   Overcast
1:35 AM 64.6 °F 62.1 °F 92% 30.23 in 10.0 mi Calm Calm - N/A   Scattered Clouds
1:36 AM 64.4 °F 61.9 °F 92% 30.23 in 7.0 mi Calm Calm - N/A   Scattered Clouds
1:55 AM 63.9 °F 61.7 °F 93% 30.25 in 5.0 mi NNW 3.5 mph - N/A   Scattered Clouds
2:15 AM 64.2 °F 62.1 °F 93% 30.25 in 4.0 mi North 3.5 mph - N/A   Mostly Cloudy
2:16 AM 64.2 °F 62.1 °F 93% 30.25 in 4.0 mi North 3.5 mph - N/A   Overcast
2:35 AM 64.4 °F 62.2 °F 93% 30.25 in 7.0 mi North 4.6 mph - N/A   Overcast
2:55 AM 63.9 °F 61.9 °F 93% 30.25 in 7.0 mi Calm Calm - N/A   Overcast
3:15 AM 63.1 °F 61.0 °F 93% 30.24 in 5.0 mi Calm Calm - N/A   Scattered Clouds
3:35 AM 63.0 °F 61.0 °F 93% 30.24 in 4.0 mi NNW 3.5 mph - N/A   Mostly Cloudy
3:36 AM 63.1 °F 61.2 °F 93% 30.24 in 5.0 mi North 3.5 mph - N/A   Mostly Cloudy
3:55 AM 63.5 °F 61.5 °F 93% 30.24 in 5.0 mi North 3.5 mph - N/A   Overcast
4:15 AM 63.7 °F 61.9 °F 94% 30.25 in 7.0 mi North 3.5 mph - N/A   Overcast
4:16 AM 63.9 °F 62.1 °F 94% 30.25 in 7.0 mi North 3.5 mph - N/A   Overcast
4:35 AM 63.9 °F 61.9 °F 93% 30.25 in 10.0 mi North 3.5 mph - N/A   Overcast
4:55 AM 64.0 °F 61.9 °F 93% 30.25 in 7.0 mi NNE 3.5 mph - N/A   Overcast
5:15 AM 63.9 °F 61.2 °F 91% 30.25 in 10.0 mi Calm Calm - N/A   Overcast
5:16 AM 64.0 °F 61.2 °F 90% 30.25 in 10.0 mi Calm Calm - N/A   Overcast
5:35 AM 64.4 °F 61.2 °F 89% 30.25 in 10.0 mi Calm Calm - N/A   Overcast
5:36 AM 64.4 °F 61.2 °F 89% 30.25 in 10.0 mi Calm Calm - N/A   Overcast
5:55 AM 64.4 °F 60.8 °F 88% 30.26 in 10.0 mi Calm Calm - N/A   Overcast
6:15 AM 64.0 °F 60.8 °F 89% 30.27 in 10.0 mi Calm Calm - N/A   Overcast
6:35 AM 64.4 °F 60.4 °F 87% 30.27 in 10.0 mi North 3.5 mph - N/A   Overcast
6:36 AM 64.4 °F 60.4 °F 87% 30.27 in 7.0 mi North 3.5 mph - N/A   Overcast
6:55 AM 64.4 °F 60.8 °F 88% 30.27 in 10.0 mi NNE 3.5 mph - N/A   Overcast
7:15 AM 64.0 °F 60.8 °F 89% 30.27 in 10.0 mi North 4.6 mph - N/A   Overcast
7:35 AM 63.9 °F 60.8 °F 90% 30.28 in 10.0 mi North 3.5 mph - N/A   Overcast
7:36 AM 63.9 °F 60.8 °F 90% 30.28 in 10.0 mi NNE 3.5 mph - N/A   Overcast
7:55 AM 64.0 °F 61.0 °F 90% 30.29 in 10.0 mi Calm Calm - N/A   Overcast
8:15 AM 64.4 °F 60.8 °F 88% 30.30 in 10.0 mi NNE 3.5 mph - N/A   Overcast
8:35 AM 65.3 °F 61.2 °F 86% 30.30 in 10.0 mi NNE 4.6 mph - N/A   Overcast
8:36 AM 65.3 °F 61.0 °F 86% 30.30 in 10.0 mi NE 3.5 mph - N/A   Overcast
8:47 AM 64.4 °F 60.8 °F 88% 30.30 in 10.0 mi Calm Calm - N/A   Overcast
8:55 AM 65.5 °F 61.3 °F 86% 30.31 in 10.0 mi Calm Calm - N/A   Overcast
9:07 AM 66.2 °F 60.8 °F 83% 30.31 in 10.0 mi NE 5.8 mph - N/A   Overcast
9:15 AM 65.3 °F 60.1 °F 83% 30.31 in 10.0 mi Calm Calm - N/A   Overcast
9:35 AM 66.6 °F 60.3 °F 80% 30.32 in 10.0 mi NNE 4.6 mph - N/A   Overcast
9:36 AM 66.6 °F 60.4 °F 81% 30.32 in 10.0 mi NNE 4.6 mph - N/A   Overcast
9:47 AM 66.2 °F 60.8 °F 83% 30.32 in 10.0 mi Calm Calm - N/A   Overcast
9:55 AM 66.6 °F 60.1 °F 80% 30.32 in 10.0 mi NNE 5.8 mph - N/A   Overcast
9:56 AM 66.4 °F 59.9 °F 80% 30.32 in 10.0 mi NNE 4.6 mph - N/A   Overcast
10:16 AM 67.5 °F 59.2 °F 75% 30.32 in 10.0 mi East 3.5 mph - N/A   Overcast
10:35 AM 68.4 °F 59.9 °F 74% 30.32 in 10.0 mi Calm Calm - N/A   Overcast
10:47 AM 68.0 °F 60.8 °F 78% 30.33 in 10.0 mi Calm Calm - N/A   Overcast
10:55 AM 67.8 °F 59.5 °F 75% 30.33 in 10.0 mi NNE 3.5 mph - N/A   Overcast
10:56 AM 67.8 °F 59.5 °F 75% 30.33 in 10.0 mi NE 3.5 mph - N/A   Overcast
11:15 AM 67.8 °F 59.5 °F 75% 30.32 in 10.0 mi NE 3.5 mph - N/A   Overcast
11:16 AM 68.0 °F 59.5 °F 74% 30.32 in 10.0 mi ENE 4.6 mph - N/A   Overcast
11:35 AM 68.7 °F 59.7 °F 73% 30.31 in 10.0 mi Calm Calm - N/A   Overcast
11:47 AM 69.8 °F 60.8 °F 73% 30.31 in 10.0 mi East 4.6 mph - N/A   Overcast
11:55 AM 69.8 °F 59.7 °F 70% 30.31 in 10.0 mi Calm Calm - N/A   Overcast
11:56 AM 69.8 °F 59.7 °F 70% 30.31 in 10.0 mi Calm Calm - N/A   Overcast
12:15 PM 70.2 °F 59.9 °F 70% 30.31 in 10.0 mi ENE 4.6 mph - N/A   Overcast
12:35 PM 72.3 °F 60.4 °F 66% 30.30 in 10.0 mi NNE 3.5 mph - N/A   Mostly Cloudy
12:47 PM 73.4 °F 60.8 °F 65% 30.30 in 10.0 mi ESE 4.6 mph - N/A   Mostly Cloudy
12:55 PM 73.6 °F 60.3 °F 63% 30.30 in 10.0 mi ESE 4.6 mph - N/A   Mostly Cloudy
12:56 PM 73.6 °F 60.3 °F 63% 30.30 in 10.0 mi East 5.8 mph - N/A   Mostly Cloudy
1:15 PM 73.0 °F 60.1 °F 64% 30.29 in 10.0 mi NE 3.5 mph - N/A   Mostly Cloudy
1:35 PM 72.7 °F 60.4 °F 65% 30.29 in 10.0 mi NE 3.5 mph - N/A   Scattered Clouds
1:47 PM 71.6 °F 60.8 °F 69% 30.28 in 10.0 mi ESE 4.6 mph - N/A   Scattered Clouds
1:55 PM 72.1 °F 60.4 °F 67% 30.28 in 10.0 mi Calm Calm - N/A   Scattered Clouds
1:56 PM 72.3 °F 60.6 °F 67% 30.28 in 10.0 mi Calm Calm - N/A   Scattered Clouds
2:15 PM 72.7 °F 60.4 °F 65% 30.28 in 10.0 mi Calm Calm - N/A   Scattered Clouds
2:16 PM 72.5 °F 60.4 °F 66% 30.28 in 10.0 mi Calm Calm - N/A   Scattered Clouds
2:35 PM 72.9 °F 60.8 °F 66% 30.27 in 10.0 mi Calm Calm - N/A   Clear
2:47 PM 73.4 °F 60.8 °F 65% 30.27 in 10.0 mi NNE 5.8 mph - N/A   Clear
2:55 PM 73.0 °F 60.8 °F 65% 30.27 in 10.0 mi NNE 4.6 mph - N/A   Scattered Clouds
2:56 PM 73.0 °F 60.8 °F 65% 30.27 in 10.0 mi NNE 4.6 mph - N/A   Scattered Clouds
3:15 PM 73.0 °F 60.6 °F 65% 30.27 in 10.0 mi NNE 4.6 mph - N/A   Mostly Cloudy
3:16 PM 73.0 °F 60.8 °F 65% 30.27 in 10.0 mi North 4.6 mph - N/A   Mostly Cloudy
3:35 PM 72.9 °F 60.8 °F 66% 30.26 in 10.0 mi NNE 4.6 mph - N/A   Scattered Clouds
3:36 PM 72.9 °F 60.8 °F 66% 30.26 in 10.0 mi NNE 4.6 mph - N/A   Scattered Clouds
3:47 PM 73.4 °F 60.8 °F 65% 30.27 in 10.0 mi NNE 5.8 mph - N/A   Clear
3:55 PM 72.7 °F 61.3 °F 67% 30.27 in 10.0 mi NE 3.5 mph - N/A   Clear
3:56 PM 72.7 °F 61.2 °F 67% 30.27 in 10.0 mi Calm Calm - N/A   Clear
4:15 PM 71.8 °F 61.0 °F 69% 30.27 in 10.0 mi Calm Calm - N/A   Scattered Clouds
4:16 PM 71.8 °F 61.0 °F 69% 30.27 in 10.0 mi Calm Calm - N/A   Scattered Clouds
4:35 PM 72.3 °F 61.0 °F 67% 30.26 in 10.0 mi NE 3.5 mph - N/A   Scattered Clouds
4:47 PM 73.4 °F 60.8 °F 65% 30.25 in 10.0 mi NE 4.6 mph - N/A   Clear
4:55 PM 72.7 °F 61.2 °F 67% 30.24 in 10.0 mi ENE 3.5 mph - N/A   Clear
5:15 PM 72.5 °F 61.0 °F 67% 30.24 in 10.0 mi NE 3.5 mph - N/A   Scattered Clouds
5:35 PM 72.3 °F 61.0 °F 67% 30.24 in 10.0 mi ENE 4.6 mph - N/A   Scattered Clouds
5:55 PM 71.6 °F 61.0 °F 69% 30.23 in 10.0 mi East 4.6 mph - N/A   Clear
5:56 PM 71.6 °F 61.0 °F 69% 30.24 in 10.0 mi East 3.5 mph - N/A   Clear
6:15 PM 71.2 °F 61.2 °F 70% 30.24 in 10.0 mi ENE 3.5 mph - N/A   Scattered Clouds
6:35 PM 70.7 °F 61.2 °F 72% 30.24 in 10.0 mi East 3.5 mph - N/A   Scattered Clouds
6:36 PM 70.7 °F 61.2 °F 72% 30.24 in 10.0 mi East 4.6 mph - N/A   Scattered Clouds
6:55 PM 70.2 °F 61.2 °F 73% 30.23 in 10.0 mi Calm Calm - N/A   Scattered Clouds
7:15 PM 69.8 °F 61.0 °F 73% 30.23 in 10.0 mi Calm Calm - N/A   Mostly Cloudy
7:16 PM 69.8 °F 61.0 °F 73% 30.23 in 10.0 mi Calm Calm - N/A   Mostly Cloudy
7:35 PM 68.9 °F 60.8 °F 75% 30.23 in 10.0 mi ESE 3.5 mph - N/A   Scattered Clouds
7:36 PM 68.9 °F 61.0 °F 76% 30.23 in 10.0 mi East 4.6 mph - N/A   Scattered Clouds
7:55 PM 68.5 °F 60.8 °F 76% 30.23 in 10.0 mi East 3.5 mph - N/A   Scattered Clouds
8:15 PM 68.4 °F 60.8 °F 77% 30.24 in 10.0 mi Calm Calm - N/A   Mostly Cloudy
8:35 PM 68.2 °F 60.8 °F 77% 30.24 in 10.0 mi East 3.5 mph - N/A   Scattered Clouds
8:36 PM 68.0 °F 60.8 °F 78% 30.24 in 10.0 mi ESE 4.6 mph - N/A   Scattered Clouds
8:55 PM 68.0 °F 60.8 °F 78% 30.24 in 10.0 mi ESE 5.8 mph - N/A   Mostly Cloudy
9:15 PM 67.6 °F 60.8 °F 79% 30.25 in 10.0 mi Calm Calm - N/A   Mostly Cloudy
9:16 PM 67.6 °F 60.8 °F 79% 30.24 in 10.0 mi ESE 3.5 mph - N/A   Mostly Cloudy
9:35 PM 67.5 °F 60.8 °F 79% 30.24 in 10.0 mi Calm Calm - N/A   Mostly Cloudy
9:36 PM 67.5 °F 60.8 °F 79% 30.24 in 10.0 mi Calm Calm - N/A   Mostly Cloudy
9:55 PM 67.3 °F 60.8 °F 80% 30.23 in 10.0 mi ESE 3.5 mph - N/A   Overcast
10:15 PM 67.1 °F 60.8 °F 80% 30.23 in 10.0 mi Calm Calm - N/A   Overcast
10:35 PM 67.1 °F 60.8 °F 80% 30.23 in 10.0 mi Calm Calm - N/A   Mostly Cloudy
10:36 PM 67.1 °F 60.8 °F 80% 30.23 in 10.0 mi Calm Calm - N/A Rain Light Rain
10:55 PM 66.4 °F 60.8 °F 82% 30.23 in 10.0 mi Calm Calm - N/A   Mostly Cloudy
11:15 PM 66.4 °F 60.8 °F 82% 30.23 in 10.0 mi Calm Calm - N/A   Overcast
11:35 PM 66.6 °F 60.8 °F 82% 30.22 in 10.0 mi SE 3.5 mph - N/A   Mostly Cloudy
11:36 PM 66.6 °F 60.8 °F 82% 30.22 in 10.0 mi Calm Calm - N/A   Mostly Cloudy
11:55 PM 66.2 °F 60.8 °F 83% 30.22 in 10.0 mi SE 3.5 mph - N/A Rain Light Rain
11:56 PM 66.2 °F 60.8 °F 83% 30.22 in 10.0 mi SE 3.5 mph - N/A   Light Drizzle